星链-35657(STARLINK-35657)

导读

STARLINK-35657是美国SpaceX公司星链星座成员,于2025年11月8日发射升空,属于低轨宽带通信卫星。卫星采用平板设计搭载氪工质霍尔推进器,使用Ku/Ka频段和激光星间链路,可提供高速低时延互联网接入,服务全球偏远地区,组网后可覆盖全球满足手机直连等通信需求,退役后会主动离轨焚毁减少空间垃圾。

Basic Information
目录编号:
66399
目录名称:
STARLINK-35657
国际标识:
2025-257V
轨道中心:
EARTH
卫星名称:
星链-35657
卫星全名:
星链-35657(STARLINK-35657)
卫星状态:
在轨 (已飞行217 天)
发射日期:
2025-11-08 UTC
国别 :
美国 (US)
星等 :
--
Orbit Information
数据来源 国际轨道数据 AOE轨道数据
星历时间 2026-06-12T13:24:24+0800
1天前
查看轨道信息
2026-06-10T04:00:00+0800
3天前
查看轨道信息
半长轴 6840.83km 6840.788km
偏心率 0.0001193 0.0001928
轨道倾角 53.156° 53.159°
近地点辐角 79.484° 54.138°
升交点赤经 136.755° 147.940°
平近点角 280.630° 45.918°
近地点 461.876km 461.332km
远地点 463.51km 463.97km
周期 93.848分钟 93.847分钟
每日圈数 15.344036 15.344178
Detailed Information
固有亮度:
5
最大亮度:
2.5
卫星平台:
Starlink V1.0
覆盖范围:
全球
运营商:
太空探索技术公司
运营商所在国:
美国
制造商(研发单位):
太空探索技术公司
制造商所在国:
美国
使用方式:
暂无
Satellite Introduction
Starlink 计划是 SpaceX 推出的全球卫星互联网项目,通过发射低轨道卫星,为全球尤其是偏远地区提供高速、低延迟的互联网服务。自 2019 年起,Starlink 已部署数千颗卫星,旨在缩小全球数字鸿沟,推动互联网普及。该项目还为军事、航空等行业提供通信支持,带来广泛经济效益。
2D Orbit Map
3D Orbit Map
Orbit Altitude Analysis Chart
Orbit Inclination Analysis Chart
Orbit Comprehensive Analysis Chart
View Comprehensive Chart